Flag for Sweden Weather past 2 weeks in Stockholm, Sweden

Now
66 °F

Passing clouds.


Feels Like: 66 °F
Forecast: 48 / 60 °F
Wind: 7 mph from Southwest

Location: Stockholm Bromma Airport

Current Time: Sep 20, 2014 at 4:20:16 PM

Latest Report: Sep 20, 2014 at 3:20 PM


Visibility: N/A

Pressure: 29.92 "Hg

Humidity: 68%

Dew point: 55 °F

Location of StockholmLocation

Historic Weather in Stockholm — Graph

°F

Stockholm temperature yesterday

Maximum temperature yesterday: 66 °F (at 1:20 PM)
Minimum temperature yesterday: 46 °F (at 3:20 AM)
Average temperature yesterday: 56 °F

Past Weeks' High & Low Weather Summary

 TemperatureHumidityPressure
High70 °F (Sep 8, 1:20 PM)100% (Sep 5, 10:20 PM)30.48 "Hg (Sep 5, 10:20 PM)
Low39 °F (Sep 17, 5:20 AM)52% (Sep 14, 2:20 PM)29.80 "Hg (Sep 9, 3:50 AM)
Average57 °F84%30.18 "Hg
* Reported Sep 5 3:20 PM — Sep 20 3:20 PM, Stockholm, Weather by CustomWeather, © 2014

Note: Actual official high and low records may vary slightly from our data, if they occured in-between our weather recording intervals... More about our weather records

Advertising

Stockholm weather history for previous 24 hours

 ConditionsComfort  
Time TempWeatherWind HumidityBarometerVisibility
3:20 PM
Sep 20
66 °FPassing clouds.7 mph68%29.92 "HgN/A
2:50 PM64 °FSunny.6 mph73%29.95 "Hg10 mi
2:20 PM64 °FPassing clouds.6 mph68%29.95 "HgN/A
1:50 PM66 °FScattered clouds.5 mph64%29.95 "HgN/A
1:20 PM64 °FPassing clouds.5 mph73%29.95 "HgN/A
12:50 PM64 °FPassing clouds.3 mph68%29.95 "HgN/A
12:20 PM63 °FPassing clouds.6 mph73%29.98 "HgN/A
11:50 AM63 °FSunny.6 mph73%29.98 "Hg10 mi
11:20 AM61 °FPassing clouds.5 mph83%29.98 "HgN/A
10:50 AM59 °FFog.3 mph82%29.98 "Hg5 mi
10:20 AM59 °FPassing clouds.No wind82%30.01 "HgN/A
9:50 AM57 °FFog.2 mph88%30.01 "Hg6 mi
9:20 AM57 °FFog.3 mph88%30.01 "Hg5 mi
8:50 AM55 °FFog.3 mph94%30.01 "Hg4 mi
8:20 AM55 °FFog.3 mph94%30.01 "Hg4 mi
7:50 AM55 °FFog.5 mph94%30.01 "Hg4 mi
7:20 AM54 °FFog.2 mph100%30.01 "Hg3 mi
6:50 AM54 °FFog.3 mph100%30.01 "Hg3 mi
6:20 AM54 °FFog.3 mph100%30.01 "Hg3 mi
5:50 AM54 °FFog.2 mph100%30.01 "Hg2 mi
5:20 AM54 °FFog.No wind100%30.01 "Hg2 mi
4:50 AM55 °FFog.No wind94%30.01 "Hg2 mi
4:20 AM55 °FFog.No wind94%30.01 "Hg3 mi
3:50 AM55 °FFog.No wind94%30.04 "Hg2 mi
3:20 AM55 °FFog.No wind94%30.04 "Hg3 mi
2:50 AM55 °FFog.2 mph100%30.04 "Hg2 mi
1:50 AM54 °FFog.1 mph100%30.04 "Hg2 mi
1:20 AM52 °FMostly cloudy.No wind100%30.04 "Hg2 mi
12:50 AM50 °FMostly cloudy.No wind100%30.04 "Hg1 mi
12:20 AM48 °FMostly cloudy.1 mph100%30.04 "Hg0 mi
11:50 PM
Sep 19
48 °FFog.No wind100%30.04 "Hg0 mi
11:20 PM50 °FDense fog.No wind100%30.04 "Hg0 mi
10:50 PM50 °FDense fog.No wind100%30.04 "Hg0 mi
10:20 PM50 °FLight fog.No wind100%30.07 "Hg0 mi
9:50 PM52 °FClear.No wind100%30.07 "Hg10 mi
9:20 PM54 °FClear.No wind94%30.07 "Hg10 mi
8:50 PM55 °FClear.2 mph94%30.07 "Hg10 mi
8:20 PM57 °FClear.5 mph94%30.07 "Hg10 mi
7:50 PM59 °FSunny.5 mph88%30.07 "Hg10 mi
7:20 PM59 °FSunny.6 mph88%30.07 "Hg10 mi
6:50 PM61 °FSunny.6 mph77%30.07 "Hg10 mi
6:20 PM63 °FSunny.5 mph73%30.07 "Hg10 mi
5:50 PM64 °FSunny.7 mph64%30.07 "Hg10 mi
5:20 PM66 °FPassing clouds.6 mph60%30.07 "HgN/A
4:50 PM66 °FPassing clouds.7 mph56%30.07 "HgN/A
4:20 PM66 °FPassing clouds.7 mph60%30.07 "HgN/A
Weather by CustomWeather, © 2014

See weather overviewHow to use our weather pages